Omaha Offutt, NE

8:33 PM CST on November 19, 2017 (GMT -0600)
Offutt Air Force Base

Weather History for KOFF - September, 2013

Change the Weather History Date:

Monday, September 23, 2013

  Actual Average Record
Temperature  
Mean Temperature 65 °F -  
Max Temperature 77 °F 72 °F 91 °F (2017)
Min Temperature 53 °F 50 °F 31 °F (2012)
Growing Degree Days 15 (Base 50)    
Moisture  
Dew Point 51 °F    
Average Humidity 64    
Maximum Humidity 89    
Minimum Humidity 38    
Precipitation  
Precipitation 0.00 in - - ()
Sea Level Pressure  
Sea Level Pressure 29.80 in    
Wind  
Wind Speed 12 mph (SE)    
Max Wind Speed 25 mph    
Max Gust Speed 33 mph    
Visibility 10 miles    
Events      
Averages and records for this station are not official NWS values.
T = Trace of Precipitation, MM = Missing Value Source: NWS Daily Summary

Daily Weather History Graph

Daily Weather History Graph

Search for Another Location

Airport or City:

Trip Planner

Search our weather history database for the weather conditions in past years. The results will help you decide how hot, cold, wet, or windy it might be!

Date:

Astronomy

Sep. 23, 2013 Rise Set
Actual Time 7:12 AM CDT 7:18 PM CDT
Civil Twilight 6:44 AM CDT 7:46 PM CDT
Nautical Twilight 6:12 AM CDT 8:18 PM CDT
Astronomical Twilight 5:39 AM CDT 8:50 PM CDT
Moon 9:49 PM CDT (9/23) 11:35 AM CDT (9/23)
Length of Visible Light 13h 01m
Length of Day
12h 06m
Waning Gibbous, 81% of the Moon is Illuminated
Sep 23
Waning Gibbous
Sep 26
Last Quarter
Oct 4
New
Oct 11
First Quarter
Oct 18
Full

Hourly Weather History & Observations

Time (CDT) Temp. Dew Point Humidity Pressure Visibility Wind Dir Wind Speed Gust Speed Precip Events Conditions
12:58 AM 56.5 °F 50.9 °F 82% 29.86 in 10.0 mi ESE 8.1 mph - N/A   Clear
1:58 AM 55.9 °F 50.5 °F 82% 29.86 in 10.0 mi East 8.1 mph - N/A   Clear
2:58 AM 55.8 °F 51.1 °F 84% 29.84 in 10.0 mi East 8.1 mph - N/A   Clear
3:58 AM 54.1 °F 50.2 °F 86% 29.84 in 10.0 mi East 6.9 mph - N/A   Clear
4:58 AM 54.5 °F 50.5 °F 86% 29.83 in 10.0 mi ESE 8.1 mph - N/A   Clear
5:58 AM 54.5 °F 50.7 °F 87% 29.83 in 10.0 mi ESE 8.1 mph - N/A   Clear
6:58 AM 53.4 °F 50.4 °F 89% 29.85 in 10.0 mi ESE 5.8 mph - N/A   Clear
7:58 AM 54.9 °F 51.1 °F 87% 29.86 in 10.0 mi SE 10.4 mph - N/A   Clear
8:58 AM 58.6 °F 52.2 °F 79% 29.86 in 10.0 mi ESE 16.1 mph - N/A   Clear
9:58 AM 63.7 °F 52.3 °F 67% 29.85 in 10.0 mi SE 17.3 mph - N/A   Clear
10:58 AM 67.5 °F 53.1 °F 60% 29.84 in 10.0 mi SE 18.4 mph - N/A   Clear
11:58 AM 72.1 °F 54.5 °F 54% 29.82 in 10.0 mi SE 18.4 mph - N/A   Clear
12:58 PM 74.8 °F 55.2 °F 50% 29.81 in 10.0 mi SSE 19.6 mph - N/A   Clear
1:58 PM 76.5 °F 52.9 °F 44% 29.78 in 10.0 mi SE 23.0 mph 33.4 mph N/A   Clear
2:58 PM 77.7 °F 55.0 °F 45% 29.76 in 10.0 mi SE 19.6 mph - N/A   Clear
3:58 PM 77.9 °F 52.3 °F 41% 29.74 in 10.0 mi ESE 25.3 mph - N/A   Clear
4:58 PM 77.2 °F 50.0 °F 38% 29.74 in 10.0 mi SSE 19.6 mph 29.9 mph N/A   Clear
5:58 PM 75.6 °F 50.0 °F 41% 29.74 in 10.0 mi SE 21.9 mph 28.8 mph N/A   Clear
6:58 PM 72.0 °F 48.4 °F 43% 29.76 in 10.0 mi SE 16.1 mph - N/A   Partly Cloudy
7:58 PM 68.2 °F 50.4 °F 53% 29.76 in 10.0 mi ESE 11.5 mph - N/A   Mostly Cloudy
8:58 PM 67.6 °F 50.4 °F 54% 29.77 in 10.0 mi ESE 12.7 mph - N/A   Overcast
9:58 PM 66.9 °F 50.0 °F 54% 29.77 in 10.0 mi ESE 15.0 mph - N/A   Scattered Clouds
10:58 PM 65.1 °F 51.1 °F 60% 29.76 in 10.0 mi ESE 16.1 mph 23.0 mph N/A   Partly Cloudy
11:58 PM 66.0 °F 52.0 °F 60% 29.74 in 10.0 mi ESE 17.3 mph 23.0 mph N/A   Partly Cloudy